MET'MAP v2.0
soon released !

Expected late october,
this new version will be
more efficient, smarter,
and hosted on a brand new
server x3 powerfull...
...and still free !


Not compatible ?
Try the mobile version !

LOG IN : | Subscribe | Disclaimer | Who is Orbifly ? |
ICAO code :

TAF - LFOF Alençon Valframbert - 25 Sep 2020 10:56 UTC
Data Sources :     NOAA   


- Airport Elevation : 479 ft
- IATA code : XAN
- No reported NOTAMs.


LFOF - Alençon Valframbert

Latest METAR recorded : 0000/00/00 T :25 TAF EBDT 250541Z 2507/2516 20009KT 9999 FEW018 BKN030 TEMPO 2507/2516 21010G20KT 5000 -SHRA FEW005 SCT018TCU PROB30 TEMPO 2512/2516 21010G22KT 3000 +SHRA TSRA SCT005 BKN015CB
NO TAF


MET'MAP, your aeronautical weather chart ! - Copyright ORBIFLY December 2007

Programming & Development : Alexandra Zaïnal
Co-Developer : Marc-Olivier Méhu
Technical & hardware support : Manuel Goepfert
Concept & Financing : Baudouin d'Aumeries